Cross City, FL

1:38 AM EST on December 07, 2019 (GMT -0500)
Cross City

Weather History for KCTY - October, 2019

Change the Weather History Date:

Friday, October 11, 2019

  Actual Average Record
Temperature  
Mean Temperature 74 °F 72 °F  
Max Temperature 86 °F 84 °F 92 °F (2014)
Min Temperature 62 °F 60 °F 46 °F (2000)
Degree Days  
Heating Degree Days 0    
Month to date heating degree days 0  
Since 1 July heating degree days 0  
Cooling Degree Days 9    
Month to date cooling degree days 143  
Year to date cooling degree days 2900  
Growing Degree Days 24 (Base 50)    
Moisture  
Dew Point 62 °F    
Average Humidity 72    
Maximum Humidity 97    
Minimum Humidity 32    
Precipitation  
Precipitation 0.00 in 0.11 in 0.62 in (2003)
Month to date precipitation 0.31 1.56  
Year to date precipitation 47.78 41.39  
Sea Level Pressure  
Sea Level Pressure 30.04 in    
Wind  
Wind Speed 6 mph (NE)    
Max Wind Speed 10 mph    
Max Gust Speed -    
Visibility 10 miles    
Events      
T = Trace of Precipitation, MM = Missing Value Source: NWS Daily Summary

Daily Weather History Graph

Daily Weather History Graph

Search for Another Location

Airport or City:

Astronomy

Oct. 11, 2019 Rise Set
Actual Time 7:31 AM EDT 7:06 PM EDT
Civil Twilight 7:07 AM EDT 7:30 PM EDT
Nautical Twilight 6:39 AM EDT 7:58 PM EDT
Astronomical Twilight 6:12 AM EDT 8:25 PM EDT
Moon 6:21 PM EDT (10/11) 5:27 AM EDT (10/11)
Length of Visible Light 12h 22m
Length of Day
11h 35m
Waxing Gibbous, 96% of the Moon is Illuminated
Oct 11
Waxing Gibbous
Oct 13
Full
Oct 21
Last Quarter
Oct 27
New
Nov 4
First Quarter

Hourly Weather History & Observations

Time (EDT) Temp. Heat Index Dew Point Humidity Pressure Visibility Wind Dir Wind Speed Gust Speed Precip Events Conditions
12:15 AM 69.3 °F - 65.7 °F 88% 30.06 in 10.0 mi ENE 3.5 mph - N/A   Clear
12:35 AM 68.9 °F - 65.5 °F 89% 30.06 in 10.0 mi NE 5.8 mph - N/A   Clear
12:55 AM 68.4 °F - 65.3 °F 90% 30.06 in 10.0 mi NE 4.6 mph - N/A   Clear
1:15 AM 67.6 °F - 65.1 °F 92% 30.06 in 10.0 mi NE 4.6 mph - N/A   Clear
1:35 AM 67.5 °F - 65.1 °F 92% 30.05 in 10.0 mi NE 3.5 mph - N/A   Unknown
1:55 AM 66.9 °F - 64.9 °F 93% 30.05 in 10.0 mi NE 4.6 mph - N/A   Clear
2:15 AM 66.2 °F - 64.8 °F 95% 30.05 in 10.0 mi NE 5.8 mph - N/A   Clear
2:35 AM 66.0 °F - 64.6 °F 95% 30.04 in 10.0 mi NE 3.5 mph - N/A   Clear
2:55 AM 65.5 °F - 64.2 °F 96% 30.04 in 10.0 mi NE 4.6 mph - N/A   Clear
3:15 AM 65.3 °F - 64.2 °F 96% 30.04 in 10.0 mi NE 4.6 mph - N/A   Clear
3:35 AM 65.1 °F - 63.9 °F 96% 30.03 in 10.0 mi NE 5.8 mph - N/A   Clear
3:55 AM 65.1 °F - 63.9 °F 96% 30.03 in 10.0 mi NE 4.6 mph - N/A   Clear
4:15 AM 64.8 °F - 63.5 °F 96% 30.03 in 10.0 mi NE 3.5 mph - N/A   Unknown
4:35 AM 64.4 °F - 63.1 °F 96% 30.03 in 10.0 mi NNE 3.5 mph - N/A   Unknown
4:55 AM 64.4 °F - 63.3 °F 96% 30.03 in 3.5 mi NE 4.6 mph - N/A   Mist
5:15 AM 64.6 °F - 63.1 °F 95% 30.03 in 10.0 mi NE 5.8 mph - N/A   Unknown
5:35 AM 64.2 °F - 63.0 °F 96% 30.03 in 10.0 mi NE 4.6 mph - N/A   Unknown
5:55 AM 63.7 °F - 62.6 °F 96% 30.03 in 10.0 mi NNE 4.6 mph - N/A   Unknown
6:15 AM 63.5 °F - 62.6 °F 97% 30.04 in 10.0 mi NE 4.6 mph - N/A   Unknown
6:35 AM 63.5 °F - 62.2 °F 96% 30.04 in 10.0 mi NE 4.6 mph - N/A   Unknown
6:55 AM 63.5 °F - 62.2 °F 96% 30.04 in 10.0 mi NE 5.8 mph - N/A   Unknown
7:15 AM 63.9 °F - 62.2 °F 94% 30.05 in 10.0 mi NE 3.5 mph - N/A   Unknown
7:35 AM 63.7 °F - 62.1 °F 94% 30.06 in 10.0 mi NE 4.6 mph - N/A   Unknown
7:55 AM 63.3 °F - 61.9 °F 95% 30.06 in 10.0 mi NE 4.6 mph - N/A   Unknown
8:15 AM 65.1 °F - 62.6 °F 92% 30.06 in 10.0 mi NE 4.6 mph - N/A   Unknown
8:35 AM 66.6 °F - 62.8 °F 88% 30.07 in 10.0 mi NE 5.8 mph - N/A   Clear
8:55 AM 68.4 °F - 63.0 °F 83% 30.07 in 10.0 mi ENE 6.9 mph - N/A   Clear
9:15 AM 70.0 °F - 63.5 °F 80% 30.08 in 10.0 mi ENE 8.1 mph - N/A   Clear
9:35 AM 71.4 °F - 63.7 °F 76% 30.09 in 10.0 mi NE 8.1 mph - N/A   Clear
9:55 AM 73.4 °F - 64.4 °F 73% 30.09 in 10.0 mi ENE 6.9 mph - N/A   Unknown
10:15 AM 75.0 °F - 64.4 °F 69% 30.09 in 10.0 mi ENE 9.2 mph - N/A   Unknown
10:35 AM 75.7 °F - 64.4 °F 68% 30.09 in 10.0 mi NE 8.1 mph - N/A   Unknown
10:55 AM 77.5 °F - 64.2 °F 63% 30.09 in 10.0 mi ENE 10.4 mph - N/A   Unknown
11:15 AM 78.4 °F - 64.4 °F 62% 30.09 in 10.0 mi East 8.1 mph - N/A   Unknown
11:35 AM 80.1 °F 81.7 °F 63.9 °F 58% 30.08 in 10.0 mi East 10.4 mph - N/A   Unknown
11:55 AM 80.4 °F 82.0 °F 64.0 °F 57% 30.07 in - NE 8.1 mph - N/A   Unknown
12:15 PM 81.0 °F 82.2 °F 62.8 °F 54% 30.07 in 10.0 mi NNE 9.2 mph - N/A   Unknown
12:35 PM 82.0 °F 83.1 °F 62.8 °F 52% 30.07 in 10.0 mi Calm Calm - N/A   Unknown
12:55 PM 83.3 °F 83.5 °F 60.8 °F 46% 30.06 in 10.0 mi ENE 8.1 mph - N/A   Unknown
1:15 PM 84.2 °F 84.0 °F 59.5 °F 43% 30.05 in 10.0 mi NE 10.4 mph - N/A   Unknown
1:35 PM 84.2 °F 84.0 °F 59.2 °F 43% 30.04 in 10.0 mi NNE 4.6 mph - N/A   Unknown
1:55 PM 84.9 °F 84.6 °F 59.4 °F 42% 30.03 in 10.0 mi NE 9.2 mph - N/A   Unknown
2:15 PM 85.5 °F 84.8 °F 58.6 °F 40% 30.02 in 10.0 mi East 8.1 mph - N/A   Unknown
2:35 PM 85.6 °F 85.2 °F 59.7 °F 41% 30.01 in 10.0 mi NE 3.5 mph - N/A   Unknown
2:55 PM 86.0 °F 85.7 °F 59.5 °F 41% 30.01 in 10.0 mi North 8.1 mph - N/A   Unknown
3:15 PM 85.6 °F 85.2 °F 59.2 °F 41% 30.01 in 10.0 mi North 8.1 mph - N/A   Unknown
3:35 PM 85.3 °F 84.6 °F 58.6 °F 40% 30.00 in 10.0 mi Calm Calm - N/A   Unknown
3:55 PM 85.8 °F 85.2 °F 58.6 °F 40% 30.00 in 10.0 mi North 5.8 mph - N/A   Unknown
4:15 PM 85.8 °F 84.7 °F 57.0 °F 37% 30.00 in 10.0 mi NNE 6.9 mph - N/A   Unknown
4:35 PM 85.5 °F 84.5 °F 57.2 °F 38% 29.99 in 10.0 mi East 6.9 mph - N/A   Unknown
4:55 PM 85.8 °F 84.7 °F 56.8 °F 37% 29.99 in 10.0 mi North 9.2 mph - N/A   Unknown
5:15 PM 84.7 °F 83.6 °F 55.4 °F 37% 29.99 in 10.0 mi North 5.8 mph - N/A   Unknown
5:35 PM 84.6 °F 83.5 °F 56.5 °F 38% 29.99 in 10.0 mi ENE 5.8 mph - N/A   Unknown
5:55 PM 83.8 °F 83.1 °F 57.2 °F 40% 29.98 in 10.0 mi NNE 8.1 mph - N/A   Unknown
6:35 PM 81.5 °F 81.8 °F 59.7 °F 47% 29.99 in 10.0 mi Calm Calm - N/A   Unknown
6:55 PM 78.4 °F - 61.9 °F 57% 29.99 in 10.0 mi Calm Calm - N/A   Unknown
7:15 PM 74.1 °F - 61.9 °F 65% 30.00 in 10.0 mi NNE 3.5 mph - N/A   Unknown
7:35 PM 72.7 °F - 62.2 °F 70% 30.01 in 10.0 mi North 4.6 mph - N/A   Unknown
7:55 PM 72.0 °F - 61.0 °F 68% 30.01 in 10.0 mi Calm Calm - N/A   Unknown
8:15 PM 69.4 °F - 62.8 °F 79% 30.02 in 10.0 mi Calm Calm - N/A   Unknown
8:35 PM 68.0 °F - 62.6 °F 83% 30.02 in 10.0 mi Calm Calm - N/A   Unknown
8:55 PM 66.6 °F - 61.3 °F 83% 30.03 in 10.0 mi ENE 4.6 mph - N/A   Unknown
9:15 PM 69.3 °F - 60.6 °F 74% 30.04 in 10.0 mi NE 5.8 mph - N/A   Unknown
9:35 PM 71.2 °F - 60.1 °F 68% 30.04 in 10.0 mi ENE 3.5 mph - N/A   Unknown
9:55 PM 71.1 °F - 60.8 °F 70% 30.05 in 10.0 mi ENE 4.6 mph - N/A   Unknown
10:15 PM 70.3 °F - 61.3 °F 73% 30.06 in 10.0 mi ENE 5.8 mph - N/A   Clear
10:35 PM 69.8 °F - 61.7 °F 75% 30.06 in 10.0 mi ENE 4.6 mph - N/A   Unknown
10:55 PM 69.1 °F - 61.9 °F 78% 30.06 in 10.0 mi ENE 4.6 mph - N/A   Unknown
11:15 PM 68.7 °F - 62.1 °F 79% 30.06 in 10.0 mi East 3.5 mph - N/A   Unknown
11:35 PM 67.8 °F - 62.4 °F 83% 30.06 in 10.0 mi Calm Calm - N/A   Unknown
11:55 PM 64.9 °F - 61.3 °F 88% 30.06 in 10.0 mi Calm Calm - N/A   Unknown